Location: Unspecified
(50.7693°N, 0.0000°E)
Time: 17:34:34
(UTC+00:00)

SR - Pass Details

Date: 03 July 2019
Orbit: 580 x 876 km, 66.7° (Epoch: 21 July)

Event Time Altitude Azimuth Distance (km) Brightness Sun altitude
Rises 07:43:40 0° 324° (NW) 2,975 ? 33.2°
Reaches altitude 10° 07:46:11 10° 337° (NNW) 2,107 ? 33.6°
Maximum altitude 07:50:19 28° 36° (NE) 1,323 ? 34.2°
Drops below altitude 10° 07:54:44 10° 95° (E) 2,267 ? 34.9°
Sets 07:57:32 0° 107° (ESE) 3,245 ? 35.4°
